Regional Weather Roundup
Issued by NWS Green Bay, WI

Home | Current Version | Previous Version | Graphics & Text | Print | Product List | Glossary Off
Versions: 1 2 3 4 5 6 7 8 9 10 11 12 13 14 15 16 17 18 19 20 21 22 23 24 25 26 27 28 29 30 31 32 33 34 35 36 37 38 39 40 41 42 43 44 45 46 47 48 49 50

000
ASUS43 KGRB 200100
RWRGRB

NORTH-CENTRAL AND NORTHEAST WISCONSIN REGIONAL WEATHER ROUNDUP
NATIONAL WEATHER SERVICE GREEN BAY WI
700 PM CST FRI JAN 19 2018

WIZ005-009-010>012-018-019-200200-
NORTH CENTRAL WISCONSIN

CITY           SKY/WX    TMP DP  RH WIND       PRES   REMARKS
IRONWOOD       FAIR      38  26  62 SW13      29.46R
MANITOWISH WTR NOT AVBL
ARBOR VITAE    NOT AVBL
EAGLE RIVER    FAIR      32  24  73 SW7       29.45F
LAND O LAKES   NOT AVBL
RHINELANDER    FAIR      34  26  72 W10       29.49R
PHILLIPS       FAIR      32  25  75 SW6       29.50S
ANTIGO         NOT AVBL
TOMAHAWK       NOT AVBL
MERRILL        FAIR      31  25  77 SW5       29.52S
$$

WIZ013-073-200200-
NORTHEAST WISCONSIN

CITY           SKY/WX    TMP DP  RH WIND       PRES   REMARKS
IRON MOUNTAIN  FAIR      30  24  78 CALM      29.44R
MARINETTE      FAIR      34  26  72 SW9       29.51F
$$

WIZ017-030-035>037-045-200200-
CENTRAL WISCONSIN

CITY           SKY/WX    TMP DP  RH WIND       PRES   REMARKS
MEDFORD        NOT AVBL
WAUSAU         FAIR      36  25  64 SW9       29.52R
MOSINEE        NOT AVBL
MARSHFIELD     FAIR      35  26  69 W10       29.54R
WISC RAPIDS    FAIR      35  23  61 SW7       29.57R
STEVENS POINT  NOT AVBL
WAUPACA        NOT AVBL
SHAWANO        FAIR      37  27  66 SW3       29.52S
CLINTONVILLE   NOT AVBL
WAUTOMA        FAIR      37  25  61 SW9       29.59R
$$

WIZ038-039-048-051-200200-
FOX VALLEY

CITY           SKY/WX    TMP DP  RH WIND       PRES   REMARKS
NWS GREEN BAY  FAIR      36  26  67 SW12      29.55S
APPLETON       MOCLDY    34  25  69 SW12      29.55R
OSHKOSH        FAIR      36  27  69 SW12      29.57R
FOND DU LAC    FAIR      37  26  64 SW15G24   29.59R
$$

WIZ022-050-052-200200-
EAST CENTRAL WISCONSIN

CITY           SKY/WX    TMP DP  RH WIND       PRES   REMARKS
EPHRAIM        NOT AVBL
WASHINGTON ISL NOT AVBL
STURGEON BAY   FAIR      36  26  67 SW15      29.52F
MANITOWOC      FAIR      39  26  59 SW13      29.57R
SHEBOYGAN      FAIR      39  27  62 SW21G28   29.58R
$$

LMZ563-521-522-541>543-200200-
LAKESHORE

STATION/POSITION TIME  TEMP    WIND        PRES    VSBY  WAVE
                       AIR SEA DIR/SP/G                  HT/PER
                 (UTC) (F)     (DEG/KT/KT) (MB)    (MI)  (FT/S)
SHEBOYGAN LKSHOR 0000   39     210/ 20/ 22 1001.0F
KEWAUNEE LKSHORE 0030   35     190/  5/  6 1000.1R
NORTHPORT PIER   0033   35     150/  8/ 28  999.3F
MENOMINEE LKSHOR 0030   35     190/ 13/ 18  999.0F
$$



USA.gov is the U.S. government's official web portal to all federal, state and local government web resources and services.